STARLINK-11562, 62918

Orbit data source: Space-Track

STARLINK-11562, 62918 is a payload satellite owned by SpaceX/Seattle (US) in LEO that was launched on Sat, 08 Feb 2025 UTC via an FALCON 9 launch vehicle from the Air Force Eastern Test Range (AFETR). Payload-class satellites include a variety of spacecraft equipped with specific instruments for various scientific and technological missions. These include communications satellites like Starlink; space stations such as the ISS; scientific satellites like the Hubble; Earth observation satellites from companies like Planet Labs, Umbra, and HawkEye 360; GPS; miniature CubeSats for education and research; and military/defense satellites.

Loading next visibility...
Identifier
62918, 2025-027M
Orbit
LEO
Last TLE update
9 hours ago
Origin
Manufacturer
SpaceX/Seattle
Mission
Operational Commercial Communications
Bus & Motor
STARLINK V2M, Unknown motor
Mass
730 kg wet, ~700 kg dry
Launch date (UTC)
2025-02-08 (3 months ago)
Launch vehicle
FALCON 9
Launch site
Air Force Eastern Test Range (AFETR)
Object type
Payload
Rocket body
Debris
Shape & HBR
Box + 2 Pan, 29 m
Radar Cross Section
36.964 m², Large (>1 m²)

Expand to show TLE details & history

TLE from 9 hours ago
0 STARLINK-11562
1 62918U 25027M   25128.93191889 -.00000196  00000-0  19728-5 0  9997
2 62918  43.0000  24.4657 0001874 266.0337  94.0317 15.70835385 15263
Epoch: 2025-05-08T22:21Z
Definitive object data (Epoch: 2025-05-08T22:21:57.792Z)
Latitude
0.00004°
Longitude
-178.02039°
Altitude
356.368 km
Speed
7.697 km/s
True Right ascension
01h 37m 51s
True Declination
0° 00' 00"
Sunlit
Object was in daylight at TLE epoch
Visualization TLE readout
Latitude
-28.98547°
Longitude
36.03199°
Altitude
363.202 km
Speed
7.692 km/s
Apparent Right ascension
18h 44m 37s
Apparent Declination
-78° 20' 47"
Sunlit
Object is in full shadow
Visualization observer readout
Local Sidereal Time
15:05:52
Azimuth
168.716° S
Elevation
-32.607°
Doppler factor
1
Orbital elements
Apogee altitude
359.752 km
Perigee altitude
357.227 km
Semi-major axis
6,736.627 km
Eccentricity
0.0001874
Inclination
43°
RAAN
24.4657°
Arg. of periapsis
266.0337°
True anomaly
94.05312°
Mean anomaly
94.0317°
Eccentric anomaly
94.04241°
Mean motion
3.92536 °/min
BSTAR
0.0000019728
Orbital period
91.71 mins
Loading maneuver chart data...
Loading SW <> Apogee altitude chart data...
Loading historical data...
Loading historical data...
Loading historical data...
Loading historical data...
Loading historical data...
Loading historical data...
Loading historical data...

STARLINK-11562 Visibility forecast

Observer location: undefined°, undefined°

Span
Click to sort rows by Start time (UTC) header in descending order
Start Az.
Max El. time (UTC)
Max El. Az.
Max El.
End time (UTC)
End Az.
4 mins2025-05-09 19:55:57.621Z199.058° SSW2025-05-09 19:57:57.621Z149.951° SSE21.352°2025-05-09 19:59:57.621Z99.173° ESE
4 mins2025-05-09 23:08:57.621Z304.917° NW2025-05-09 23:09:57.621Z344.345° N33.728°2025-05-09 23:12:57.621Z75.271° E
4 mins2025-05-10 00:44:57.621Z287.937° WNW2025-05-10 00:46:57.621Z110.779° ESE40.645°2025-05-10 00:48:57.621Z109.553° ESE
|